CT1AKV-10 Estrada Real PT current weather conditions

sailwx.info

Wind from 309 at 2 knots gusting 7

Air temperature 17.2° C
Dewpoint -9.6° C

Last reported at 2016-Jun-28 23:45 UTC.
Time now 2016-Jun-29 00:19 UTC

Location: N 39°11' W 008°44'.
View on Google Maps.

See reports from other nearby stations

  
Tides and Currents Weather Stations Pressure Air Temp Water Temp Dewpoint Dewpoint Depression Visibility Wind Speed Wind Dir Waves Ship Positions
date/time (UTC)wind fromknots sea level pressurealtimeterstation pressurevisibilityair tempwater tempwave heightnotes
2016-Jun-28 23:45 309 2 gusting 7 17.2
2016-Jun-28 23:30 306 2 gusting 6 17.8
2016-Jun-28 23:15 238 2 gusting 7 17.8
2016-Jun-28 23:00 299 2 gusting 7 18.3
2016-Jun-28 22:45 318 2 gusting 6 17.8
2016-Jun-28 22:30 313 2 gusting 8 18.3
2016-Jun-28 22:15 296 2 gusting 8 18.3
2016-Jun-28 22:00 313 3 gusting 10 18.9
2016-Jun-28 21:45 306 2 gusting 7 19.4
2016-Jun-28 21:30 286 4 gusting 9 19.4
2016-Jun-28 21:15 316 3 gusting 9 20.0
2016-Jun-28 21:00 299 3 gusting 8 20.0
2016-Jun-28 20:45 290 4 gusting 12 20.0
2016-Jun-28 20:30 303 5 gusting 13 20.6
2016-Jun-28 20:15 296 5 gusting 13 21.1
2016-Jun-28 20:00 303 5 gusting 13 21.7
2016-Jun-28 19:45 320 5 gusting 12 22.2
2016-Jun-28 19:30 306 6 gusting 13 23.3
2016-Jun-28 19:15 319 6 gusting 13 24.4
2016-Jun-28 19:00 322 5 gusting 13 26.1
2016-Jun-28 18:45 301 6 gusting 13 26.7
2016-Jun-28 18:30 305 6 gusting 13 27.2
2016-Jun-28 18:15 313 6 gusting 13 27.8
2016-Jun-28 18:00 314 6 gusting 14 28.3
2016-Jun-28 17:45 299 6 gusting 14 28.9
2016-Jun-28 17:30 317 6 gusting 13 29.4
2016-Jun-28 17:15 323 6 gusting 13 30.0
2016-Jun-28 17:00 335 6 gusting 13 30.6
2016-Jun-28 16:45 335 6 gusting 14 30.6
2016-Jun-28 16:30 306 6 gusting 15 30.6
2016-Jun-28 16:15 315 6 gusting 15 30.6
2016-Jun-28 16:00 306 6 gusting 15 30.6
2016-Jun-28 15:45 316 6 gusting 14 31.1
2016-Jun-28 15:30 288 6 gusting 15 31.7
2016-Jun-28 15:15 292 6 gusting 16 32.2
2016-Jun-28 15:00 317 6 gusting 14 32.2
2016-Jun-28 14:45 329 6 gusting 13 32.8
2016-Jun-28 14:30 306 6 gusting 15 32.8
2016-Jun-28 14:15 314 6 gusting 17 32.8
2016-Jun-28 14:00 310 6 gusting 15 33.3
2016-Jun-28 13:45 304 6 gusting 13 32.8
2016-Jun-28 13:30 308 6 gusting 13 33.3
2016-Jun-28 13:15 314 6 gusting 13 33.3
2016-Jun-28 13:00 322 6 gusting 16 33.3
2016-Jun-28 12:45 306 5 gusting 13 33.9
2016-Jun-28 12:30 320 5 gusting 13 33.9
2016-Jun-28 12:15 300 4 gusting 13 33.9
2016-Jun-28 12:00 295 4 gusting 13 33.9
2016-Jun-28 11:45 289 3 gusting 9 33.9
2016-Jun-28 11:30 291 3 gusting 7 33.3
2016-Jun-28 11:15 294 2 gusting 6 32.8
2016-Jun-28 11:00 318 2 gusting 6 32.2
2016-Jun-28 10:45 303 2 gusting 6 32.2
2016-Jun-28 10:30 301 1 gusting 6 31.7
2016-Jun-28 10:15 277 1 gusting 7 30.6
2016-Jun-28 10:00 270 2 gusting 7 30.0
2016-Jun-28 09:45 263 2 gusting 8 29.4
2016-Jun-28 09:30 312 3 gusting 7 28.9
2016-Jun-28 09:15 287 2 gusting 6 28.3
2016-Jun-28 09:00 314 2 gusting 5 28.3
2016-Jun-28 08:45 324 2 gusting 6 27.8
2016-Jun-28 08:30 286 3 gusting 7 26.1
2016-Jun-28 08:15 311 3 gusting 9 26.1
2016-Jun-28 08:00 314 3 gusting 9 25.6
2016-Jun-28 07:45 316 1 gusting 6 26.7
2016-Jun-28 07:30 224 26.1
2016-Jun-28 07:15 304 0 gusting 2 24.4
2016-Jun-28 07:00 311 1 gusting 4 22.2
2016-Jun-28 06:45 277 1 gusting 5 21.1
2016-Jun-28 06:30 304 1 gusting 5 19.4
2016-Jun-28 06:15 317 0 gusting 4 17.8
2016-Jun-28 06:00 313 1 gusting 6 17.2
2016-Jun-28 05:45 310 1 gusting 5 16.7
2016-Jun-28 05:30 308 1 gusting 4 16.7
2016-Jun-28 05:15 314 0 gusting 3 16.7
2016-Jun-28 05:00 311 1 gusting 6 16.7
2016-Jun-28 04:45 322 1 gusting 6 16.7
2016-Jun-28 04:30 302 2 gusting 6 16.7
2016-Jun-28 04:15 305 2 gusting 6 16.7
2016-Jun-28 04:00 294 2 gusting 6 16.7
2016-Jun-28 03:45 309 3 gusting 9 16.7
2016-Jun-28 03:30 306 3 gusting 9 17.2
2016-Jun-28 03:15 301 3 gusting 8 17.2
2016-Jun-28 03:00 316 2 gusting 8 17.2
2016-Jun-28 02:45 292 3 gusting 6 17.2
2016-Jun-28 02:30 285 2 gusting 6 17.8
2016-Jun-28 02:15 316 2 gusting 6 17.8
2016-Jun-28 02:00 302 2 gusting 8 17.8
2016-Jun-28 01:45 293 2 gusting 7 17.8
2016-Jun-28 01:30 289 2 gusting 7 17.8
2016-Jun-28 01:15 323 2 gusting 7 17.8
2016-Jun-28 01:00 325 3 gusting 8 17.8
2016-Jun-28 00:45 302 3 gusting 9 17.8
2016-Jun-28 00:30 307 3 gusting 7 17.8
2016-Jun-28 00:15 290 2 gusting 9 17.8
2016-Jun-28 00:00 306 3 gusting 6 18.3
2016-Jun-27 23:45 314 3 gusting 8 18.3
2016-Jun-27 23:30 277 3 gusting 9 18.3
2016-Jun-27 23:15 305 3 gusting 9 18.3
2016-Jun-27 23:00 315 3 gusting 9 18.3
2016-Jun-27 22:45 295 3 gusting 9 18.9
2016-Jun-27 22:30 290 3 gusting 9 18.9
2016-Jun-27 22:15 303 3 gusting 9 19.4
2016-Jun-27 22:00 333 4 gusting 9 19.4
2016-Jun-27 21:45 320 3 gusting 11 20.0
2016-Jun-27 21:30 291 3 gusting 7 20.6
2016-Jun-27 21:15 281 4 gusting 9 20.6
2016-Jun-27 21:00 313 3 gusting 9 21.1
2016-Jun-27 20:45 280 3 gusting 9 21.7
2016-Jun-27 20:30 321 3 gusting 8 22.2
2016-Jun-27 20:15 302 3 gusting 9 23.3
2016-Jun-27 20:00 325 3 gusting 7 23.9
2016-Jun-27 19:45 314 4 gusting 9 24.4
2016-Jun-27 19:30 332 4 gusting 9 25.6
2016-Jun-27 19:15 291 4 gusting 10 26.7
2016-Jun-27 19:00 306 4 gusting 11 28.3
2016-Jun-27 18:45 326 5 gusting 11 29.4
2016-Jun-27 18:30 310 5 gusting 10 30.6
2016-Jun-27 18:15 321 5 gusting 13 31.1
2016-Jun-27 18:00 285 4 gusting 10 31.7
2016-Jun-27 17:45 294 5 gusting 12 31.7
2016-Jun-27 17:30 315 5 gusting 13 32.2
2016-Jun-27 17:15 286 5 gusting 12 32.2
2016-Jun-27 17:00 282 5 gusting 13 32.8
2016-Jun-27 16:45 286 5 gusting 13 32.8
2016-Jun-27 16:30 316 5 gusting 14 33.9
2016-Jun-27 16:15 270 5 gusting 12 34.4
2016-Jun-27 16:00 292 5 gusting 13 34.4
2016-Jun-27 15:45 304 4 gusting 13 35.6
2016-Jun-27 15:30 296 5 gusting 11 35.6
2016-Jun-27 15:15 303 4 gusting 12 36.1
2016-Jun-27 15:00 298 4 gusting 12 36.7
2016-Jun-27 14:45 330 4 gusting 10 37.2
2016-Jun-27 14:30 332 3 gusting 9 37.8
2016-Jun-27 14:15 307 2 gusting 10 38.3
2016-Jun-27 14:00 305 2 gusting 8 38.9
2016-Jun-27 13:45 316 3 gusting 8 38.3
2016-Jun-27 13:30 342 1 gusting 6 38.9
2016-Jun-27 13:15 012 1 gusting 7 38.3
2016-Jun-27 13:00 349 2 gusting 6 37.2
2016-Jun-27 12:45 007 1 gusting 5 37.2
2016-Jun-27 12:30 006 2 gusting 6 36.7
2016-Jun-27 12:15 029 1 gusting 6 36.7
2016-Jun-27 12:00 346 2 gusting 6 36.1
2016-Jun-27 11:45 021 3 gusting 9 35.0
2016-Jun-27 11:30 016 2 gusting 6 34.4
2016-Jun-27 11:15 037 2 gusting 6 33.9
2016-Jun-27 11:00 052 2 gusting 6 32.8
2016-Jun-27 10:45 006 1 gusting 4 32.8